When you browse on this site, cookies collect data to enhance your experience and personalize the content and advertising you see.
Visit our Privacy Policy to learn more. By continuing to use the site, you agree to this use of cookies and data.
  • In Hungary
  • List of Countries
  • For 7 days
  • Water Temperature
  • Weather Map
  • News
  • Weather Widgets
  • user-avatar
    Login

    Hourly Weather Zelenyi Stav

    Today, 17 August, Saturday

    Time Temperature Precipitation Wind Pressure Humidity
    00:00 +18°C° 0 mm 4 mps 750 mmHg 80%
    01:00 +17°C° 0 mm 4 mps 750 mmHg 81%
    02:00 +17°C° 0 mm 3 mps 750 mmHg 82%
    03:00 +17°C° 0 mm 4 mps 750 mmHg 82%
    04:00 +17°C° 0 mm 4 mps 750 mmHg 81%
    05:00 +17°C° 0 mm 4 mps 750 mmHg 80%
    06:00 +17°C° 0 mm 4 mps 750 mmHg 77%
    07:00 +18°C° 0 mm 4 mps 750 mmHg 73%
    08:00 +19°C° 0 mm 4 mps 751 mmHg 70%
    09:00 +20°C° 0 mm 4 mps 750 mmHg 65%
    10:00 +21°C° 0 mm 4 mps 750 mmHg 60%
    11:00 +22°C° 0 mm 4 mps 750 mmHg 55%
    12:00 +23°C° 0 mm 5 mps 750 mmHg 54%
    13:00 +23°C° 0 mm 5 mps 750 mmHg 53%
    14:00 +23°C° 0 mm 5 mps 750 mmHg 53%
    15:00 +23°C° 0 mm 5 mps 750 mmHg 54%
    16:00 +23°C° 0 mm 4 mps 750 mmHg 55%
    17:00 +22°C° 0 mm 4 mps 750 mmHg 56%
    18:00 +21°C° 0 mm 4 mps 750 mmHg 59%
    19:00 +21°C° 0 mm 3 mps 750 mmHg 62%
    20:00 +20°C° 0 mm 3 mps 751 mmHg 65%
    21:00 +19°C° 0 mm 3 mps 751 mmHg 68%
    22:00 +18°C° 0 mm 3 mps 751 mmHg 72%
    23:00 +18°C° 0 mm 3 mps 751 mmHg 75%

    Tomorrow, 18 August, Sunday

    Time Temperature Precipitation Wind Pressure Humidity
    00:00 +17°C° 0 mm 3 mps 751 mmHg 78%
    01:00 +17°C° 0 mm 3 mps 751 mmHg 81%
    02:00 +16°C° 0 mm 3 mps 751 mmHg 83%
    03:00 +16°C° 0 mm 3 mps 751 mmHg 86%
    04:00 +14°C° 0 mm 3 mps 751 mmHg 88%
    05:00 +14°C° 0 mm 3 mps 751 mmHg 90%
    06:00 +16°C° 0 mm 3 mps 752 mmHg 83%
    07:00 +18°C° 0 mm 3 mps 752 mmHg 76%
    08:00 +19°C° 0 mm 4 mps 752 mmHg 68%
    09:00 +21°C° 0 mm 4 mps 752 mmHg 63%
    10:00 +22°C° 0 mm 4 mps 752 mmHg 58%
    11:00 +25°C° 0 mm 4 mps 752 mmHg 53%
    12:00 +25°C° 0 mm 4 mps 752 mmHg 51%
    13:00 +26°C° 0 mm 4 mps 752 mmHg 48%
    14:00 +26°C° 0 mm 4 mps 752 mmHg 46%
    15:00 +26°C° 0 mm 4 mps 752 mmHg 46%
    16:00 +26°C° 0 mm 4 mps 753 mmHg 46%
    17:00 +26°C° 0 mm 4 mps 753 mmHg 47%
    18:00 +24°C° 0 mm 3 mps 753 mmHg 53%
    19:00 +22°C° 0 mm 3 mps 753 mmHg 59%
    20:00 +20°C° 0 mm 3 mps 754 mmHg 65%
    21:00 +19°C° 0 mm 3 mps 754 mmHg 67%
    22:00 +19°C° 0 mm 2 mps 754 mmHg 70%
    23:00 +18°C° 0 mm 2 mps 754 mmHg 72%

    Day after tomorrow, 19 August, Monday

    Time Temperature Precipitation Wind Pressure Humidity
    00:00 +18°C° 0 mm 2 mps 755 mmHg 74%
    01:00 +17°C° 0 mm 2 mps 755 mmHg 77%
    02:00 +17°C° 0 mm 2 mps 755 mmHg 79%
    03:00 +17°C° 0 mm 2 mps 755 mmHg 82%
    04:00 +16°C° 0 mm 2 mps 755 mmHg 84%
    05:00 +16°C° 0 mm 2 mps 755 mmHg 87%
    06:00 +18°C° 0 mm 3 mps 756 mmHg 80%
    07:00 +20°C° 0 mm 3 mps 756 mmHg 72%
    08:00 +22°C° 0 mm 3 mps 756 mmHg 65%
    09:00 +24°C° 0 mm 3 mps 756 mmHg 60%
    10:00 +25°C° 0 mm 3 mps 756 mmHg 54%
    11:00 +26°C° 0 mm 3 mps 756 mmHg 49%
    12:00 +27°C° 0 mm 3 mps 756 mmHg 46%
    13:00 +28°C° 0 mm 3 mps 756 mmHg 43%
    14:00 +29°C° 0 mm 4 mps 756 mmHg 39%
    15:00 +29°C° 0 mm 3 mps 755 mmHg 39%
    16:00 +29°C° 0 mm 3 mps 755 mmHg 39%
    17:00 +29°C° 0 mm 3 mps 755 mmHg 38%
    18:00 +27°C° 0 mm 3 mps 755 mmHg 42%
    19:00 +26°C° 0 mm 3 mps 756 mmHg 46%
    20:00 +25°C° 0 mm 2 mps 756 mmHg 50%
    21:00 +24°C° 0 mm 2 mps 756 mmHg 53%
    22:00 +23°C° 0 mm 2 mps 756 mmHg 55%
    23:00 +23°C° 0 mm 2 mps 756 mmHg 58%

    20 August, Tuesday

    Time Temperature Precipitation Wind Pressure Humidity
    00:00 +21°C° 0 mm 2 mps 756 mmHg 61%
    01:00 +21°C° 0 mm 2 mps 756 mmHg 65%
    02:00 +20°C° 0 mm 2 mps 756 mmHg 69%
    03:00 +20°C° 0 mm 3 mps 756 mmHg 71%
    04:00 +19°C° 0 mm 3 mps 756 mmHg 74%
    05:00 +19°C° 0 mm 3 mps 756 mmHg 77%
    06:00 +21°C° 0 mm 3 mps 756 mmHg 70%
    07:00 +24°C° 0 mm 3 mps 757 mmHg 64%
    08:00 +26°C° 0 mm 3 mps 757 mmHg 57%
    09:00 +27°C° 0 mm 3 mps 757 mmHg 53%
    10:00 +29°C° 0 mm 4 mps 756 mmHg 48%
    11:00 +30°C° 0 mm 4 mps 756 mmHg 43%
    12:00 +32°C° 0 mm 4 mps 756 mmHg 42%
    13:00 +33°C° 0 mm 4 mps 756 mmHg 40%
    14:00 +33°C° 0 mm 4 mps 755 mmHg 38%
    15:00 +33°C° 0 mm 5 mps 755 mmHg 40%
    16:00 +32°C° 0 mm 5 mps 755 mmHg 42%
    17:00 +32°C° 0 mm 6 mps 755 mmHg 44%
    18:00 +29°C° 0 mm 5 mps 755 mmHg 48%
    19:00 +28°C° 0 mm 4 mps 755 mmHg 53%
    20:00 +26°C° 0 mm 3 mps 755 mmHg 58%
    21:00 +26°C° 0 mm 3 mps 755 mmHg 61%
    22:00 +25°C° 0 mm 4 mps 755 mmHg 64%
    23:00 +23°C° 0 mm 4 mps 755 mmHg 67%

    21 August, Wednesday

    Time Temperature Precipitation Wind Pressure Humidity
    00:00 +23°C° 0 mm 4 mps 755 mmHg 70%
    01:00 +23°C° 0 mm 4 mps 755 mmHg 73%
    02:00 +22°C° 0 mm 4 mps 755 mmHg 75%
    03:00 +22°C° 0 mm 4 mps 755 mmHg 77%
    04:00 +22°C° 0 mm 4 mps 755 mmHg 79%
    05:00 +22°C° 0 mm 5 mps 755 mmHg 81%
    06:00 +23°C° 0 mm 5 mps 755 mmHg 74%
    07:00 +26°C° 0 mm 5 mps 755 mmHg 68%
    08:00 +28°C° 0 mm 5 mps 755 mmHg 61%
    09:00 +29°C° 0 mm 5 mps 754 mmHg 55%
    10:00 +32°C° 0 mm 5 mps 754 mmHg 49%
    11:00 +34°C° 0 mm 4 mps 754 mmHg 43%
    12:00 +34°C° 0 mm 5 mps 753 mmHg 40%
    13:00 +35°C° 0 mm 5 mps 753 mmHg 37%
    14:00 +36°C° 0 mm 5 mps 753 mmHg 34%
    15:00 +36°C° 0 mm 5 mps 752 mmHg 34%
    16:00 +36°C° 0 mm 5 mps 752 mmHg 34%
    17:00 +36°C° 0 mm 5 mps 752 mmHg 35%
    18:00 +34°C° 0 mm 5 mps 752 mmHg 39%
    19:00 +32°C° 0 mm 5 mps 752 mmHg 43%
    20:00 +29°C° 0 mm 4 mps 752 mmHg 47%
    21:00 +29°C° 0 mm 5 mps 752 mmHg 50%
    22:00 +28°C° 0 mm 5 mps 752 mmHg 52%
    23:00 +28°C° 0 mm 5 mps 752 mmHg 54%

    22 August, Thursday

    Time Temperature Precipitation Wind Pressure Humidity
    00:00 +27°C° 0 mm 6 mps 752 mmHg 57%
    01:00 +27°C° 0 mm 6 mps 752 mmHg 60%
    02:00 +26°C° 0 mm 6 mps 752 mmHg 63%
    03:00 +26°C° 0 mm 6 mps 752 mmHg 64%
    04:00 +26°C° 0 mm 6 mps 752 mmHg 66%
    05:00 +24°C° 0 mm 7 mps 752 mmHg 68%
    06:00 +27°C° 0 mm 7 mps 752 mmHg 63%
    07:00 +28°C° 0 mm 8 mps 753 mmHg 59%
    08:00 +31°C° 0 mm 9 mps 753 mmHg 54%
    09:00 +32°C° 0 mm 9 mps 753 mmHg 51%
    10:00 +33°C° 0 mm 9 mps 753 mmHg 47%
    11:00 +34°C° 0 mm 9 mps 753 mmHg 43%
    12:00 +35°C° 0 mm 9 mps 752 mmHg 40%
    13:00 +37°C° 0 mm 8 mps 752 mmHg 37%
    14:00 +38°C° 0 mm 8 mps 752 mmHg 35%
    15:00 +38°C° 0 mm 8 mps 752 mmHg 35%
    16:00 +37°C° 0 mm 8 mps 752 mmHg 36%
    17:00 +37°C° 0 mm 8 mps 752 mmHg 37%
    18:00 +34°C° 0 mm 8 mps 752 mmHg 43%
    19:00 +32°C° 0 mm 9 mps 752 mmHg 49%
    20:00 +31°C° 0 mm 9 mps 752 mmHg 55%
    21:00 +29°C° 0 mm 9 mps 752 mmHg 59%
    22:00 +28°C° 0 mm 9 mps 753 mmHg 63%
    23:00 +27°C° 0 mm 9 mps 753 mmHg 67%
    Show more